Regional Weather Roundup
Issued by NWS

Home | Current Version | Previous Version | Text Only | Print | Product List | Glossary On
Versions: 1 2 3 4 5 6 7 8 9 10 11 12 13 14 15 16 17 18 19 20 21 22 23 24 25 26 27 28 29 30 31 32 33 34 35 36 37 38 39 40 41 42 43 44 45 46 47 48 49 50
000
ASPQ40 PGUM 222112
RWRPQ
WEATHER ROUNDUP FOR THE MARIANAS AND MICRONESIA
NATIONAL WEATHER SERVICE TIYAN GU
700 AM CHST THU NOV 23 2017

GUZ001>004-222200-
MARIANA ISLANDS-

CITY           SKY/WX    TMP DP  RH WIND       PRES   REMARKS
GUAM AIRPORT   PTCLDY    81  72  74 E14       29.81R
ANDERSEN AFB   PTCLDY    79  70  73 E14G21    29.82R
ROTA AIRPORT   PTCLDY    79  72  78 E15       29.81R
TINIAN AP      PTCLDY    81  72  74 E12       29.79
SAIPAN AP      CLOUDY    82  75  78 E15       29.80R

$$

PMZ161-222200-
REPUBLIC OF PALAU-

CITY           SKY/WX    TMP DP  RH WIND       PRES   REMARKS
KOROR AP       CLOUDY    82  75  78 NE8       29.70R
KOROR WSO      CLOUDY    82  77  83 NE6       29.71R HX  91

$$

PMZ171>174-222200-
FEDERATED STATES OF MICRONESIA-

CITY           SKY/WX    TMP DP  RH WIND       PRES   REMARKS
YAP AIRPORT    MOCLDY    81  75  83 VRB6      29.72R
CHUUK AP       CLOUDY    82  79  89 E9        29.74R HX  93
POHNPEI AP     CLOUDY    81  77  89 SE6       29.75
POHNPEI WSO    LGT RAIN  79  77  94 SE3       29.79R
KOSRAE AP      NOT AVBL

$$

PMZ181-222200-
REPUBLIC OF THE MARSHALL ISLANDS-

CITY           SKY/WX    TMP DP  RH WIND       PRES   REMARKS
KWAJALEIN AP   MOSUNNY   86  75  70 NE9       29.79R HX  95
MAJURO AP      PTSUNNY   84  79  84 E8        29.78  HX  96
MAJURO WSO     PTSUNNY   86  77  74 SE8       29.77R HX  97

$$




USA.gov is the U.S. government's official web portal to all federal, state and local government web resources and services.